This is the latest recevied weather packets stored in our database for station/object IA5FYI-13. If no packets are shown the sender has not sent any weather packets the latest 10 day(s).
| Time | Temp. | Humidity | Pressure | Rain* | Wind** | Luminosity | Snow |
|---|---|---|---|---|---|---|---|
| 1778018109 | 17.78° C | 92% | 1010.2 hPa | 4.57 mm | - | - | - |
| 1778017813 | 17.78° C | 92% | 1010.2 hPa | 4.57 mm | - | - | - |
| 1778017513 | 17.78° C | 93% | 1010.8 hPa | 3.05 mm | - | - | - |
| 1778017213 | 17.78° C | 93% | 1010.8 hPa | 2.54 mm | - | - | - |
| 1778016909 | 17.78° C | 93% | 1010.5 hPa | 2.54 mm | - | - | - |
| 1778016625 | 17.78° C | 93% | 1010.8 hPa | 2.54 mm | - | - | - |
| 1778016309 | 17.78° C | 93% | 1010.8 hPa | 2.54 mm | - | - | - |
| 1778016013 | 17.78° C | 93% | 1010.8 hPa | 2.54 mm | - | - | - |
| 1778015712 | 17.78° C | 93% | 1011.2 hPa | 2.03 mm | - | - | - |
| 1778015413 | 17.78° C | 93% | 1010.8 hPa | 0.25 mm | - | - | - |
| 1778015110 | 17.78° C | 93% | 1011.2 hPa | 0 mm | - | - | - |
| 1778014509 | 17.78° C | 93% | 1011.2 hPa | 8.38 mm | - | - | - |
| 1778014214 | 17.78° C | 93% | 1011.2 hPa | 7.62 mm | - | - | - |
| 1778013613 | 17.78° C | 93% | 1010.8 hPa | 7.62 mm | - | - | - |
| 1778013310 | 17.78° C | 92% | 1011.2 hPa | 7.62 mm | - | - | - |
| 1778013026 | 17.78° C | 92% | 1011.2 hPa | 6.86 mm | - | - | - |
| 1778012709 | 17.78° C | 92% | 1010.8 hPa | 5.33 mm | - | - | - |
| 1778012413 | 17.78° C | 92% | 1011.2 hPa | 4.32 mm | - | - | - |
| 1778011813 | 17.78° C | 91% | 1011.2 hPa | 1.27 mm | - | - | - |
| 1778011509 | 17.78° C | 91% | 1011.2 hPa | 1.02 mm | - | - | - |
| 1778011234 | 17.78° C | 91% | 1011.2 hPa | 7.11 mm | - | - | - |
| 1778010909 | 17.78° C | 91% | 1011.2 hPa | 6.86 mm | - | - | - |
| 1778010613 | 17.78° C | 91% | 1011.2 hPa | 5.84 mm | - | - | - |
| 1778010313 | 17.78° C | 91% | 1011.2 hPa | 4.32 mm | - | - | - |
| 1778010013 | 17.78° C | 91% | 1011.2 hPa | 2.29 mm | - | - | - |
* Rain latest hour (hover to see other rain measurements)
** Current wind speed in m/s (hover to see current wind gust speed)